Location: Amarillo Post Office Jordan Station
(35.1907°N, 101.9342°W)
Time: 13:41:35
(UTC+00:00)

MOS 1-B - Pass Details

Date: 24 January 2021
Orbit: 905 x 914 km, 99.4° (Epoch: 03 March)

Event Time Altitude Azimuth Distance (km) Brightness Sun altitude
Rises 12:49:30 0° 15° (NNE) 3,536 7.4 -12.9°
Reaches altitude 10° 12:51:55 10° 16° (NNE) 2,591 6.8 -12.4°
Maximum altitude 12:57:43 80° 104° (ESE) 921 4.5 -11.3°
Drops below altitude 10° 13:03:28 10° 191° (SSW) 2,577 6.8 -10.2°
Sets 13:05:52 0° 193° (SSW) 3,515 7.5 -9.7°
